Location: Enborne
(51.3833°N, 1.3667°W)
Time: 23:51:33
(UTC+00:00)

NOSS 2-2 (C) - Pass Details

Date: 25 January 2021
Orbit: 463 x 1745 km, 63.3° (Epoch: 03 March)

Event Time Altitude Azimuth Distance (km) Brightness Sun altitude
Rises 21:26:54 0° 310° (NW) 3,177 8.0 -43.2°
Reaches altitude 10° 21:29:10 10° 301° (WNW) 2,408 7.2 -43.5°
Enters shadow 21:30:22 17° 293° (WNW) 2,055 6.7 -43.7°
